Weather in Costa del Sol

Spain     36°39′50″N   4°31′15″W
temp.,
°C
wind,
m/s
gust,
m/s
humid.,
%
clouds,
%
prec.,
mm/h
press.,
hPa
HPBL,
m
11 april, sun
sun1123:00+13se119111 0.1 101570
02:00+13ese019489 0.1 1015140
05:00+14nw118477 0.0 1014278
08:00+12nw22850 0.0 101522
11:00+18wsw12520 0.0 1016597
14:00+22ssw234016 0.0 10151742
17:00+21ssw124681 0.0 10141363
20:00+20n465345 0.1 1015649
12 april, mon
mon1223:00+16nnw34665 0.0 1018139
02:00+15nnw3572100 0.0 1018114
05:00+13nnw347893 0.0 101887
08:00+13n2278100 0.0 101948
11:00+19ese4655100 0.0 10211000
14:00+18se5765100 0.1 1022894
17:00+18sse4460100 0.0 1021829
20:00+16sse3465100 0.0 1022661
13 april, tue
tue1323:00+14se248471 0.0 1024425
02:00+14se247957 0.1 1024591
05:00+12e018597 0.0 102456
08:00+12nw118585 0.0 102346
11:00+15sse2468100 0.0 1024729
14:00+17sse4559100 0.0 1023930
17:00+17sse4556100 0.0 1021879
20:00+16sse2360100 0.0 1021539
14 april, wed
wed1423:00+13se2373100 0.0 1022354
02:00+12sse1180100 0.0 102084
05:00+12se1281100 0.0 1019375
08:00+12nw0184100 0.0 101861
11:00+15sse2464100 0.0 1019666
14:00+14se3665100 0.2 1018720
17:00+12e1376100 1.3 1016334
20:00+12ne137399 1.9 1015430
15 april, thu
thu1523:00+12ssw2379100 0.0 1017237
02:00+12ne1184100 0.0 101671
05:00+12sw1193100 2.8 1014165
08:00+12n1193100 6.0 1013102
11:00+12s1192100 1.3 1013142
14:00+13sse1296100 4.6 1013279
17:00+12ssw2296100 4.3 1012240
20:00+12wsw1295100 7.9 1013145